Aeroporto :
LOGIN :

Iscrizione | Disclaimer

   EN    FR    IT 

 










Sommario :    VFR   VFR Marginale   IFR   IFR Intensivo   IFR Molto Intensivo
Visibilità : 
Base nubi : 
>= 8 km
>= 3000ft
5 / 8 km
1000 / 3000 ft
1500m / 5 km
500 / 1000 ft
800 / 1500m
200 / 500 ft
< 800m
< 200 ft
Simboli :   Temporali  Nebbia  Neve Forte  Precipitazioni Forti  Vento > 20 kt
SIGMETs :   Varie  Temporali  Ghiacco  Turbolenza  Onda orograficha  Ceneri Vulcaniche






- Altitudine del aeroporto : 23 ft
- Codice IATA : XFW


EDHI - Hamburg Finkenwerder

ULTIMO METAR :
  • 090220Z AUTO 05007KT 9999 // FEW170/// BKN200/// 21/15 Q1019

METARs OBSOLETI :
  • 090150Z AUTO 05008KT 9999 // BKN180/// 21/15 Q1019
  • 090120Z AUTO 05007KT 9999 // BKN190/// 22/15 Q1019
  • 090050Z AUTO 04008KT 9999 // NCD 22/15 Q1019
  • 090020Z AUTO 05007KT 9999 // NCD 23/16 Q1019

Previsioni scadute.



MetMap, La meteo Aeronautica in un colpo d'occhio ! - Copyright ORBIFLY Dicembre 2007 - Disclaimer

ORBIFLY MET'MAP TEAM :

Programmazione e sviluppo : Alexandra Zaïnal
Concezione : Baudouin d'Aumeries
Aiuto per la programmazione : Marc-Olivier Méhu
Supporto tecnico e logistico : Manuel Goepfert
Aiuto per la traduzione : Arnaldo La Scala

Contatto : metmap@orbifly.com




FONTI E CREDITI :

   NOAA